Location: Jodlow
(50.1500°N, 16.7500°E)
Time: 02:18:49
(UTC+02:00)

O/OREOS (USA 219) - Pass Details

Date: 04 April 2023
Orbit: 621 x 646 km, 72.0° (Epoch: 22 May)

Event Time Altitude Azimuth Distance (km) Brightness Sun altitude
Exits shadow 03:42:05 - 142° (SE) 2,178 ? -23.8°
Reaches altitude 10° 03:42:40 10° 137° (SE) 2,030 ? -23.7°
Maximum altitude 03:45:24 16° 100° (E) 1,672 ? -23.4°
Drops below altitude 10° 03:48:08 10° 63° (ENE) 2,031 ? -23.1°
Sets 03:51:10 0° 42° (NE) 2,941 ? -22.7°
